Lyon, MS

12:19 AM CST on February 27, 2017 (GMT -0600)
Fletcher

Weather History for KCKM - December, 2013

Change the Weather History Date:

Friday, December 20, 2013

  Actual Average (KUOX) Record (KUOX)
Temperature  
Mean Temperature 64 °F -  
Max Temperature 68 °F 54 °F 74 °F (1949)
Min Temperature 59 °F 31 °F 4 °F (1981)
Degree Days  
Heating Degree Days 2    
Growing Degree Days 14 (Base 50)    
Moisture  
Dew Point 61 °F    
Average Humidity 91    
Maximum Humidity 100    
Minimum Humidity 82    
Precipitation  
Precipitation 0.03 in - - ()
Sea Level Pressure  
Sea Level Pressure 29.93 in    
Wind  
Wind Speed 14 mph (SSE)    
Max Wind Speed 21 mph    
Max Gust Speed 26 mph    
Visibility 10 miles    
Events      
Averages and records for this station are not official NWS values.
T = Trace of Precipitation, MM = Missing Value Source: NWS Daily Summary

Daily Weather History Graph

Daily Weather History Graph

Search for Another Location

Airport or City:

Trip Planner

Search our weather history database for the weather conditions in past years. The results will help you decide how hot, cold, wet, or windy it might be!

Date:

Astronomy

Dec. 20, 2013 Rise Set
Actual Time 7:03 AM CST 4:55 PM CST
Civil Twilight 6:36 AM CST 5:23 PM CST
Nautical Twilight 6:04 AM CST 5:55 PM CST
Astronomical Twilight 5:33 AM CST 6:25 PM CST
Moon 8:09 PM CST (12/20) 9:04 AM CST (12/20)
Length of Visible Light 10h 47m
Length of Day
9h 51m
Waning Gibbous, 90% of the Moon is Illuminated
Dec 20
Waning Gibbous
Dec 25
Last Quarter
Jan 1
New
Jan 7
First Quarter
Jan 15
Full

Hourly Weather History & Observations

Time (CST) Temp. Dew Point Humidity Pressure Visibility Wind Dir Wind Speed Gust Speed Precip Events Conditions
12:15 AM 60.8 °F 55.4 °F 82% 29.96 in 8.0 mi SSE 15.0 mph - N/A   Overcast
12:35 AM 59.0 °F 55.4 °F 88% 29.95 in 7.0 mi SSE 15.0 mph 21.9 mph N/A   Mostly Cloudy
12:55 AM 59.0 °F 55.4 °F 88% 29.95 in 8.0 mi SSE 16.1 mph - N/A   Mostly Cloudy
1:15 AM 59.0 °F 55.4 °F 88% 29.95 in 9.0 mi SSE 15.0 mph 20.7 mph N/A   Mostly Cloudy
1:35 AM 59.0 °F 55.4 °F 88% 29.95 in 8.0 mi SSE 16.1 mph 20.7 mph N/A   Overcast
1:55 AM 59.0 °F 55.4 °F 88% 29.96 in 8.0 mi SSE 13.8 mph - N/A   Overcast
2:15 AM 59.0 °F 55.4 °F 88% 29.96 in 8.0 mi SSE 13.8 mph - N/A   Overcast
2:35 AM 59.0 °F 55.4 °F 88% 29.96 in 8.0 mi SSE 13.8 mph - N/A   Mostly Cloudy
2:55 AM 59.0 °F 55.4 °F 88% 29.97 in 8.0 mi SSE 13.8 mph - N/A   Overcast
3:15 AM 59.0 °F 55.4 °F 88% 29.97 in 7.0 mi SSE 12.7 mph - N/A   Overcast
3:35 AM 59.0 °F 55.4 °F 88% 29.97 in 10.0 mi SSE 11.5 mph - N/A   Overcast
3:55 AM 59.0 °F 55.4 °F 88% 29.97 in 10.0 mi SSE 12.7 mph - N/A   Overcast
4:15 AM 59.0 °F 57.2 °F 94% 29.97 in 9.0 mi SSE 12.7 mph - N/A   Overcast
4:35 AM 59.0 °F 57.2 °F 94% 29.96 in 10.0 mi SSE 12.7 mph - N/A   Overcast
4:55 AM 59.0 °F 57.2 °F 94% 29.96 in 10.0 mi SSE 13.8 mph - N/A   Overcast
5:15 AM 59.0 °F 57.2 °F 94% 29.96 in 10.0 mi SSE 13.8 mph - N/A   Overcast
5:35 AM 59.0 °F 57.2 °F 94% 29.96 in 10.0 mi SSE 12.7 mph - N/A   Overcast
5:55 AM 59.0 °F 57.2 °F 94% 29.96 in 10.0 mi SSE 13.8 mph - N/A   Overcast
6:15 AM 59.0 °F 57.2 °F 94% 29.96 in 10.0 mi SSE 13.8 mph 20.7 mph N/A   Overcast
6:35 AM 60.8 °F 57.2 °F 88% 29.96 in 10.0 mi SSE 13.8 mph - N/A   Overcast
6:55 AM 60.8 °F 57.2 °F 88% 29.97 in 10.0 mi SSE 12.7 mph - N/A   Overcast
7:15 AM 60.8 °F 57.2 °F 88% 29.97 in 10.0 mi SSE 15.0 mph 19.6 mph N/A   Overcast
7:35 AM 60.8 °F 57.2 °F 88% 29.97 in 10.0 mi SSE 13.8 mph - N/A   Overcast
7:55 AM 60.8 °F 59.0 °F 94% 29.98 in 10.0 mi SSE 12.7 mph - N/A   Overcast
8:15 AM 60.8 °F 59.0 °F 94% 29.98 in 10.0 mi SSE 12.7 mph - N/A   Overcast
8:35 AM 62.6 °F 59.0 °F 88% 29.98 in 10.0 mi SSE 13.8 mph - N/A   Mostly Cloudy
8:55 AM 62.6 °F 59.0 °F 88% 29.99 in 10.0 mi South 15.0 mph - N/A   Mostly Cloudy
9:15 AM 62.6 °F 59.0 °F 88% 30.00 in 10.0 mi SSE 13.8 mph - N/A   Mostly Cloudy
9:35 AM 64.4 °F 59.0 °F 83% 30.00 in 10.0 mi SSE 16.1 mph - N/A   Scattered Clouds
9:55 AM 66.2 °F 60.8 °F 83% 30.00 in 10.0 mi South 15.0 mph 21.9 mph N/A   Partly Cloudy
10:15 AM 66.2 °F 60.8 °F 83% 30.00 in 10.0 mi South 18.4 mph 21.9 mph N/A   Scattered Clouds
10:35 AM 66.2 °F 62.6 °F 88% 30.00 in 10.0 mi South 16.1 mph 25.3 mph N/A   Mostly Cloudy
10:55 AM 66.2 °F 62.6 °F 88% 30.00 in 10.0 mi South 16.1 mph - N/A   Overcast
11:15 AM 66.2 °F 62.6 °F 88% 30.00 in 10.0 mi South 11.5 mph 18.4 mph N/A   Overcast
11:35 AM 66.2 °F 62.6 °F 88% 29.98 in 10.0 mi South 13.8 mph - N/A   Overcast
11:55 AM 66.2 °F 62.6 °F 88% 29.97 in 10.0 mi South 13.8 mph - N/A   Overcast
12:15 PM 66.2 °F 62.6 °F 88% 29.96 in 10.0 mi South 15.0 mph - N/A   Overcast
12:35 PM 68.0 °F 62.6 °F 83% 29.94 in 10.0 mi South 12.7 mph - N/A   Overcast
12:55 PM 68.0 °F 64.4 °F 88% 29.92 in 10.0 mi South 12.7 mph - N/A   Overcast
1:15 PM 68.0 °F 64.4 °F 88% 29.92 in 10.0 mi South 11.5 mph 17.3 mph N/A   Overcast
1:35 PM 68.0 °F 64.4 °F 88% 29.92 in 10.0 mi South 9.2 mph - N/A   Overcast
1:55 PM 68.0 °F 64.4 °F 88% 29.92 in 10.0 mi South 6.9 mph - N/A   Overcast
2:15 PM 68.0 °F 64.4 °F 88% 29.92 in 10.0 mi South 9.2 mph - N/A   Overcast
2:35 PM 68.0 °F 64.4 °F 88% 29.92 in 10.0 mi South 8.1 mph - N/A   Overcast
2:55 PM 68.0 °F 64.4 °F 88% 29.92 in 10.0 mi South 5.8 mph - N/A   Overcast
3:15 PM 68.0 °F 64.4 °F 88% 29.91 in 10.0 mi South 10.4 mph - N/A   Overcast
3:35 PM 68.0 °F 64.4 °F 88% 29.91 in 10.0 mi SSE 10.4 mph - N/A   Overcast
3:55 PM 68.0 °F 64.4 °F 88% 29.91 in 10.0 mi SSE 10.4 mph - N/A   Overcast
4:15 PM 66.2 °F 64.4 °F 94% 29.91 in 10.0 mi SSE 11.5 mph - N/A   Overcast
4:35 PM 66.2 °F 64.4 °F 94% 29.91 in 10.0 mi SSE 12.7 mph - N/A   Mostly Cloudy
4:55 PM 66.2 °F 64.4 °F 94% 29.91 in 10.0 mi SSE 12.7 mph - N/A   Partly Cloudy
5:15 PM 66.2 °F 64.4 °F 94% 29.91 in 10.0 mi SSE 10.4 mph - N/A   Mostly Cloudy
5:35 PM 66.2 °F 64.4 °F 94% 29.91 in 10.0 mi SSE 6.9 mph - N/A   Overcast
5:55 PM 64.4 °F 64.4 °F 100% 29.91 in 10.0 mi SE 4.6 mph - N/A   Mostly Cloudy
6:15 PM 64.4 °F 64.4 °F 100% 29.91 in 10.0 mi SE 8.1 mph - N/A   Mostly Cloudy
6:35 PM 64.4 °F 64.4 °F 100% 29.90 in 10.0 mi SE 8.1 mph - N/A   Overcast
6:55 PM 64.4 °F 64.4 °F 100% 29.90 in 10.0 mi SE 9.2 mph - N/A   Overcast
7:15 PM 66.2 °F 64.4 °F 94% 29.90 in 10.0 mi SE 10.4 mph - N/A   Overcast
7:35 PM 66.2 °F 64.4 °F 94% 29.89 in 10.0 mi SE 11.5 mph - N/A   Mostly Cloudy
7:55 PM 66.2 °F 64.4 °F 94% 29.88 in 5.0 mi SE 13.8 mph - N/A   Mostly Cloudy
8:15 PM 66.2 °F 66.2 °F 100% 29.87 in 10.0 mi SE 12.7 mph - 0.02 in   Overcast
8:35 PM 66.2 °F 66.2 °F 100% 29.86 in 10.0 mi SSE 15.0 mph 20.7 mph 0.02 in   Overcast
8:55 PM 66.2 °F 66.2 °F 100% 29.86 in 10.0 mi SSE 16.1 mph 20.7 mph 0.03 in   Overcast
9:15 PM 66.2 °F 66.2 °F 100% 29.86 in 10.0 mi SSE 13.8 mph 19.6 mph N/A   Overcast
9:35 PM 66.2 °F 66.2 °F 100% 29.85 in 10.0 mi SSE 15.0 mph - N/A   Overcast
9:55 PM 66.2 °F 66.2 °F 100% 29.84 in 10.0 mi SSE 15.0 mph 20.7 mph N/A   Mostly Cloudy
10:15 PM 68.0 °F 66.2 °F 94% 29.85 in 10.0 mi SSE 18.4 mph 25.3 mph N/A   Mostly Cloudy
10:35 PM 68.0 °F 66.2 °F 94% 29.84 in 10.0 mi SSE 17.3 mph 23.0 mph N/A   Scattered Clouds
10:55 PM 66.2 °F 66.2 °F 100% 29.84 in 10.0 mi SSE 19.6 mph - N/A   Partly Cloudy
11:15 PM 68.0 °F 66.2 °F 94% 29.84 in 10.0 mi SSE 20.7 mph 26.5 mph N/A   Mostly Cloudy
11:35 PM 68.0 °F 66.2 °F 94% 29.84 in 10.0 mi SSE 18.4 mph - N/A   Overcast
11:55 PM 68.0 °F 66.2 °F 94% 29.84 in 10.0 mi SSE 17.3 mph - N/A   Overcast